Regional Weather Roundup
Issued by NWS Grand Forks, ND

Home | Current Version | Previous Version | Text Only | Print | Product List | Glossary Off
Versions: 1 2 3 4 5 6 7 8 9 10 11 12 13 14 15 16 17 18 19 20 21 22 23 24 25 26 27 28 29 30 31 32 33 34 35 36 37 38 39 40 41 42 43 44 45 46 47 48 49 50

948
ASUS43 KFGF 230510
RWRFGF
PRAIRIE TO PINES  WEATHER ROUNDUP
NATIONAL WEATHER SERVICE EASTERN NORTH DAKOTA/GRAND FORKS ND
1200 AM CDT SAT JUL 23 2016

 **SATELLITE DATA USED TO AUGMENT SKY COVER AT AUTOMATED STATIONS**
 *****  WEATHER ACROSS EASTERN NORTH DAKOTA  *****

CITY           SKY/WX    TMP DP  RH WIND       PRES   REMARKS
GRAND FORKS    CLOUDY    75  66  73 CALM      29.99R
GRAND FRKS AFB CLOUDY    70  67  92 CALM      30.00F
GRAND FRKS NWS   N/A     73 N/A N/A MISG        N/A
DEVILS LAKE    CLOUDY    74  64  71 S12       29.99F
FARGO          CLOUDY    73  67  81 NE7       29.97F
WAHPETON ARPT  CLOUDY    73  68  83 CALM      29.99S
$$

 ***** WEATHER ACROSS CENTRAL AND WESTERN NORTH DAKOTA  *****

CITY           SKY/WX    TMP DP  RH WIND       PRES   REMARKS
BISMARCK       TSTM      72  61  68 SE17G25   29.92F
MINOT          CLOUDY    76  65  68 E10       29.87F
JAMESTOWN      LGT RAIN  70  61  73 SW25G39   30.00F
MINOT AFB      CLOUDY    73  66  76 SE16      29.85F
GARRISON         N/A     69  63  81 S7        29.87R
WILLISTON      LGT RAIN  73  64  73 S20G32    29.88R
DICKINSON      LGT RAIN  64  61  90 SE29G39   29.87F
HETTINGER      CLOUDY    68  61  78 E18G33    29.95F
$$

 *****  OTHER AIRPORT OBSERVATIONS IN OUR AREA  *****

CITY           SKY/WX    TMP DP  RH WIND       PRES   REMARKS
WALHALLA       NOT AVBL
GRAFTON AIRPOR FAIR      70  70 100 S3        30.02S
VALLEY CITY AR LGT RAIN  73  72  94 CALM      30.04F
CANDO          NOT AVBL
CAVALIER APRT  FAIR      68  66  94 S5        30.00S
GWINNER        FAIR      75  72  88 NW10      30.03R
SHEYENNE NWR     N/A     74  70  87 NW3       29.95S
ROLLA          CLOUDY    68  64  88 SE10      29.98F
 ***** THE ABOVE OBSERVATIONS ARE NON NWS ARE NOT QUALITY
       CONTROLLED AND MAY MIS-REPORT RAIN FOR SNOW...
$$

  *****  WEATHER ACROSS NORTHERN MINNESOTA  *****

CITY           SKY/WX    TMP DP  RH WIND       PRES   REMARKS
FLAG ISLAND    CLOUDY    72  61  68 NW3       30.01S
WARROAD        CLOUDY    66  61  82 NW6       30.02F
ROSEAU         MOCLDY    63  57  82 S3        30.02S
HALLOCK        CLOUDY    68  64  88 CALM      29.99F
THF RVR FALLS  CLOUDY    70  62  76 NE3       30.02F
BAUDETTE       MOCLDY    64  61  90 W3        30.02S
WASKISH        MOCLDY    63  61  94 CALM      30.03S
CROOKSTON      CLOUDY    73  64  73 E5        30.00F
STEPHEN NDAWN    N/A     70  66  88 SE3         N/A
GREENBUSH NDAW   N/A    N/A N/A N/A CALM        N/A
$$
  *****  WEATHER ACROSS CENTRAL AND WEST MINNESOTA  *****

CITY           SKY/WX    TMP DP  RH WIND       PRES   REMARKS
FOSSTON        CLOUDY    66  64  94 CALM      30.03S
BEMIDJI        CLOUDY    66  63  88 CALM      30.03S
PARK RAPIDS    CLOUDY    75  64  68 CALM      30.03S
ELBOW LAKE     FAIR      76  71  82 CALM      29.99S
WADENA         CLOUDY    70  66  88 CALM      30.02S
DETROIT LAKES  MOCLDY    73  66  78 NE5       30.04R
MOORHEAD       CLOUDY    73  68  83 E3        29.99F
FERGUS FALLS   MOCLDY    75  68  78 E3        30.00F
MORRIS MN      CLOUDY    72  68  88 NE3       29.97S
STAPLES        MOCLDY    72  66  83 CALM      30.02S
$$
  *****  WEATHER ELSEWHERE ACROSS MINNESOTA  *****

CITY           SKY/WX    TMP DP  RH WIND       PRES   REMARKS
DULUTH         CLOUDY    71  59  65 N6        30.02R
INTRNTL FALLS  CLOUDY    58  57  97 CALM      30.01R
ELY            CLEAR     61  55  82 CALM      30.03R
CLOQUET        CLOUDY    70  61  73 NW3       30.02R
WHEATON        MOCLDY    73  72  94 CALM      29.98S
BRAINERD       MOCLDY    70  69  97 CALM      30.02R
HIBBING        CLOUDY    60  59  96 NW3       30.03R
ALEXANDRIA     CLOUDY    73  67  81 E5        30.01S
SAINT CLOUD    PTCLDY    69  69 100 NE3       29.98S
MINNEAPOLIS    MOCLDY    83  64  52 E6        29.96F
$$

  *****  WEATHER ACROSS SOUTH DAKOTA  *****

CITY           SKY/WX    TMP DP  RH WIND       PRES   REMARKS
SIOUX FALLS    CLOUDY    82  78  88 E8        29.94R HX  91
BROOKINGS      CLOUDY    77  71  82 E7        29.95F
WATERTOWN      CLOUDY    79  66  64 E7        29.98F
HURON          MOCLDY    81  76  84 NE7       29.93S
SISSETON         N/A     72  70  93 CALM      29.98R
ABERDEEN       CLOUDY    77  68  73 NW9       30.00R
MITCHELL       MOCLDY    82  78  88 E6        29.92R HX  91
PIERRE         CLOUDY    77  69  76 E15G25    29.93R
MOBRIDGE       CLOUDY    71  62  73 E20G25    29.91F
RAPID CITY     CLOUDY    76  56  49 S9        29.92F
$$

  *****  SOME WEATHER IN NEARBY STATES *****

CITY           SKY/WX    TMP DP  RH WIND       PRES   REMARKS
GLASGOW MT     CLEAR     73  65  75 VRB6      29.75R
GREAT FALLS MT CLOUDY    65  38  36 NW9       30.02R
CHEYENNE WY    CLOUDY    77  47  34 W9        30.17S
SCOTTSBLUFF NE CLOUDY    68  59  73 E10       30.02F
OMAHA NE       CLOUDY    84  79  85 SE9       29.91S HX  96
DES MOINES IA  PTCLDY    83  77  82 SE6       29.95S HX  92
DAVENPORT IA   PTCLDY    76  74  93 CALM      30.01R
CHICAGO IL     MOCLDY    82  76  81 CALM      29.98S
EAU CLAIRE WI  PTCLDY    71  69  93 CALM      29.98S
LA CROSSE WI   MOCLDY    80  75  84 E3        29.98S
$$

  *****  SOME NATIONAL WEATHER *****

CITY           SKY/WX    TMP DP  RH WIND       PRES   REMARKS
LA GUARDIA NY  PTCLDY    87  69  54 W10       29.80S HX  91
RALEIGH NC     PTCLDY    74  71  91 W5        30.02S
ATLANTA GA     PTCLDY    79  72  79 SW3       30.07S
NEW ORLEANS LA PTCLDY    83  77  82 CALM      30.02F HX  92
OKLAHOMA CITY  CLEAR     78  69  73 SE7       29.99S
ALBUQUERQUE NM CLOUDY    87  43  21 NW8       30.17R
SALT LAKE CITY PTCLDY    81  45  28 N7        30.05R
LOS ANGELES CA PTCLDY    72  59  63 S6        29.82S
BOISE ID       CLEAR     77  43  29 N15       30.06R
SEATTLE WA     MOCLDY    63  58  83 SW6       30.29R
$$

*** WEATHER ACROSS MANITOBA...SASKATCHEWAN AND ONTARIO ***
                ***ONTARIO***

CITY           SKY/WX    TMP DP  RH WIND       PRES   REMARKS
GERALDTON      MOCLDY    63  61  94 NW3       29.93R
THUNDER BAY    PTCLDY    64  61  88 SW6       29.94R
SIOUX LOOKOUT  PTCLDY    59  57  94 CALM      30.00R
TORONTO        PTCLDY    75  57  53 W8        29.88S
BIG TROUT LK   CLEAR     52  50  93 NE5       29.98R
PICKLE LAKE    NOT AVBL
DRYDEN         CLEAR     68  57  68 W6        30.01R
KENORA         PTCLDY    70  57  64 NW5       30.03R
$$
                *** MANITOBA***

CITY           SKY/WX    TMP DP  RH WIND       PRES   REMARKS
BRANDON        MOCLDY    64  61  88 NE14      29.95F
DAUPHIN        CLOUDY    64  61  88 SE5       29.95F
ISLAND LAKE    NOT AVBL
PILOT MOUND      N/A     66  63  88 SE8         N/A
THE PAS        PTCLDY    63  55  77 SE6       29.91S
THOMPSON       PTCLDY    46  41  81 VRB2      29.92S
WINNIPEG       PTCLDY    66  61  82 VRB2      29.99F
LYNN LAKE      CLEAR     54  46  76 MISG      29.85S
CHURCHILL      PTCLDY    50  41  71 S7        29.90F
GILLAM         PTCLDY    46  41  81 S3        29.94S
$$
                ***SASKATCHEWAN***

CITY           SKY/WX    TMP DP  RH WIND       PRES   REMARKS
ESTEVAN        MOCLDY    70  63  78 E16G23    29.84F
KINDERSLEY     LGT RAIN  59  57  94 SE13G23   29.87F
LLOYDMINSTER   CLEAR     64  59  82 SE8       29.81F
PRINCE ALBERT  MOCLDY    68  61  77 E7        29.84F
REGINA         CLOUDY    72  61  68 NE14      29.86R
YORKTON        CLOUDY    68  59  73 SE8       29.93R
N. BATTLEFORD  CLOUDY    70  57  64 S13G23    29.85F
LA RONGE       PTCLDY    68  55  64 S9        29.81S
SASKATOON      LGT RAIN  66  64  94 SW15      29.96R
SWIFT CURRENT  CLOUDY    66  61  82 NE12      29.84S
$$
NOTE: THESE ARE AUTOMATED STATIONS WITH LIMITED QUALITY CONTROL
      "FAIR" INDICATES FEW OR NO CLOUDS BELOW 12,000 FEET WITH NO
      SIGNIFICANT WEATHER AND/OR OBSTRUCTIONS TO VISIBILITY.
      SKY/WX - SKY CONDITION AND SIGNIFICANT WEATHER.
      TMP - AIR TEMPERATURE.    DP   - DEWPOINT TEMPERATURE.
      RH  - RELATIVE HUMIDITY.  PRES - PRESSURE.
      HX  - HEAT INDEX.         WCI  - WIND CHILL INDEX.
$




USA.gov is the U.S. government's official web portal to all federal, state and local government web resources and services.